PST,Max TemperatureF,Mean TemperatureF,Min TemperatureF,Max Dew PointF,MeanDew PointF,Min DewpointF,Max Humidity, Mean Humidity, Min Humidity, Max Sea Level PressureIn, Mean Sea Level PressureIn, Min Sea Level PressureIn, Max VisibilityMiles, Mean VisibilityMiles, Min VisibilityMiles, Max Wind SpeedMPH, Mean Wind SpeedMPH, Max Gust SpeedMPH,PrecipitationIn, CloudCover, Events, WindDirDegrees
2011-11-1,48,44,41,41,39,34,93,79,66,30.56,30.50,30.46,10,10,8,7,2,,0.00,6,,307
2011-11-2,55,46,37,45,37,28,100,74,38,30.32,29.95,29.75,10,9,3,17,4,25,0.00,1,Rain,148
2011-11-3,48,44,39,43,40,37,100,86,71,29.88,29.84,29.81,10,10,9,10,5,,0.00,1,,191
2011-11-4,44,40,35,41,38,36,100,90,71,29.95,29.92,29.90,10,8,0,7,1,,0.03,4,Fog-Rain,343
2011-11-5,46,40,35,37,36,32,93,78,57,29.86,29.81,29.79,10,10,10,12,5,17,0.00,1,,141
2011-11-6,44,38,32,36,32,30,100,76,57,30.07,29.96,29.85,10,10,10,5,0,,0.00,2,,37
2011-11-7,46,42,37,45,41,36,100,90,76,30.18,30.16,30.14,10,8,3,13,4,18,0.00,6,Rain,189
2011-11-8,51,48,46,46,44,43,100,88,76,30.24,30.21,30.19,10,10,5,14,7,,0.00,5,Rain,151
2011-11-9,57,52,48,46,43,39,82,73,55,30.21,30.17,30.09,10,10,9,15,4,20,0.00,5,,97
2011-11-10,57,48,39,43,38,34,100,65,48,30.11,30.04,29.90,10,10,10,14,6,16,0.00,2,,183
2011-11-11,50,44,37,46,39,30,100,79,57,29.86,29.57,29.40,10,9,3,29,10,38,0.10,5,Rain,204
2011-11-12,44,40,37,41,37,32,100,83,66,29.80,29.72,29.53,10,9,2,15,8,22,0.11,5,Rain,193
2011-11-13,48,44,39,41,40,37,100,84,71,29.81,29.76,29.65,10,10,9,15,7,20,0.00,3,,196
2011-11-14,46,40,33,39,34,30,93,72,53,30.07,29.93,29.78,10,10,5,16,7,28,0.00,2,Rain,291
2011-11-15,44,36,28,37,34,28,100,91,71,30.30,30.25,30.11,10,10,5,5,0,,0.00,0,,49
2011-11-16,48,40,32,46,36,25,100,81,49,30.26,29.88,29.45,10,9,2,16,6,32,0.09,3,Rain,126
2011-11-17,46,40,32,37,34,32,100,79,61,29.79,29.69,29.57,10,9,2,17,8,24,0.13,3,Rain,200
2011-11-18,39,36,32,37,33,32,100,93,75,29.75,29.64,29.56,10,8,1,7,1,,0.04,5,Rain-Snow,344
2011-11-19,37,32,28,32,25,23,100,73,56,29.94,29.84,29.76,10,10,8,10,4,,0.00,0,,60
2011-11-20,37,30,24,32,29,25,100,87,75,29.96,29.89,29.75,10,10,9,7,1,,0.00,2,,80
2011-11-21,48,42,35,43,36,28,93,76,57,29.75,29.60,29.49,10,10,3,18,8,39,0.00,4,Rain,162
2011-11-22,50,46,41,46,42,39,100,87,71,29.60,29.45,29.21,10,8,3,21,13,37,0.24,5,Rain,171
2011-11-23,46,40,35,41,40,34,100,95,76,29.79,29.56,29.32,10,8,3,7,3,,0.12,3,Rain,207
2011-11-24,44,40,35,39,37,34,100,83,71,29.80,29.62,29.40,10,9,2,21,8,38,0.09,3,Rain,177
2011-11-25,46,40,35,37,32,28,87,68,50,30.38,30.23,29.79,10,10,10,10,6,21,0.00,0,,177
2011-11-26,55,50,46,43,38,28,82,63,46,30.29,30.17,29.96,10,10,4,22,11,32,0.00,4,Rain,177
2011-11-27,55,47,39,48,43,37,100,78,54,30.31,29.99,29.80,10,9,3,17,11,29,0.03,2,Rain,197
2011-11-28,46,39,32,37,35,32,100,88,57,30.49,30.45,30.36,10,10,8,5,1,,0.00,1,,216
2011-11-29,42,40,37,39,38,34,100,89,76,30.43,30.26,30.09,10,10,5,13,2,23,0.00,4,Rain,156
2011-11-30,44,40,37,39,39,36,100,86,76,30.80,30.58,30.23,10,10,8,13,6,,0.00,3,,354